Tracking 22873 objects as of 23-Apr-2021
HD Live streaming from Space Station
objects crossing your sky now

STARLINK-1849

Track STARLINK-1849 now!
10-day predictions
STARLINK-1849 is classified as:


NORAD ID: 47137
Int'l Code: 2020-088R
Perigee: 552.9 km
Apogee: 555.8 km
Inclination: 53.1 °
Period: 95.6 minutes
Semi major axis: 6925 km
RCS: Unknown
Launch date: November 25, 2020
Source: United States (US)
Launch site: AIR FORCE EASTERN TEST RANGE (AFETR)
aabbcc
Your satellite tracking list
Your tracking list is empty




NASA's NSSDC Master Catalog

Two Line Element Set (TLE):
1 47137U 20088R   21112.91667824 -.00027298  00000-0 -18203-2 0  9996
2 47137  53.0543  10.2982 0002077  79.5787 294.6857 15.06406960  1802
Source of the keplerian elements: AFSPC